This is the latest recevied weather packets stored in our database for station/object KB1JDX. If no packets are shown the sender has not sent any weather packets the latest 10 day(s).
| Time | Temp. | Humidity | Pressure | Rain* | Wind** | Luminosity | Snow |
|---|---|---|---|---|---|---|---|
| 1778238038 | 4.44° C | 37% | 1010.6 hPa | 0 mm | 0 m/s | - | - |
| 1778236836 | 3.89° C | 36% | 1010.5 hPa | 0 mm | 0 m/s | - | - |
| 1778235637 | 3.33° C | 32% | 1010.4 hPa | 0 mm | 0 m/s | - | - |
| 1778235568 | 3.33° C | 32% | 1010.4 hPa | 0 mm | 0 m/s | - | - |
| 1778234436 | 3.33° C | 33% | 1010 hPa | 0 mm | 0 m/s | - | - |
| 1778233236 | 3.33° C | 35% | 1009.9 hPa | 0 mm | 0 m/s | - | - |
| 1778232037 | 3.33° C | 36% | 1009.9 hPa | 0 mm | 0 m/s | - | - |
| 1778231968 | 3.33° C | 36% | 1009.9 hPa | 0 mm | 0 m/s | - | - |
| 1778230836 | 3.89° C | 32% | 1009.9 hPa | 0 mm | 0 m/s | - | - |
| 1778229636 | 3.33° C | 33% | 1009.6 hPa | 0 mm | 0 m/s | - | - |
| 1778228437 | 2.78° C | 36% | 1009.6 hPa | 0 mm | 0 m/s | - | - |
| 1778228368 | 2.78° C | 36% | 1009.6 hPa | 0 mm | 0 m/s | - | - |
| 1778227236 | 2.78° C | 38% | 1009.6 hPa | 0 mm | 0 m/s | - | - |
| 1778226036 | 2.78° C | 41% | 1009.2 hPa | 0 mm | 0 m/s | - | - |
| 1778224836 | 3.33° C | 42% | 1008.8 hPa | 0 mm | 0 m/s | - | - |
| 1778224768 | 3.33° C | 43% | 1008.7 hPa | 0 mm | 0 m/s | - | - |
| 1778222436 | 3.33° C | 49% | 1008.3 hPa | 0 mm | 0 m/s | - | - |
| 1778221236 | 3.33° C | 55% | 1008.2 hPa | 0 mm | 0 m/s | - | - |
| 1778221168 | 3.33° C | 55% | 1008.2 hPa | 0 mm | 0 m/s | - | - |
| 1778220036 | 3.89° C | 59% | 1008.2 hPa | 0 mm | 0 m/s | - | - |
| 1778218836 | 4.44° C | 62% | 1008.2 hPa | 0 mm | 0 m/s | - | - |
| 1778217636 | 4.44° C | 61% | 1008.4 hPa | 0 mm | 0 m/s | - | - |
| 1778217568 | 4.44° C | 60% | 1008.4 hPa | 0 mm | 0 m/s | - | - |
| 1778216436 | 5° C | 62% | 1008.4 hPa | 0 mm | 0 m/s | - | - |
| 1778215236 | 5.56° C | 65% | 1008.8 hPa | 0 mm | 0 m/s | - | - |
* Rain latest hour (hover to see other rain measurements)
** Current wind speed in m/s (hover to see current wind gust speed)